Theta_e
300 301 301 301 301 300 299 299 299 299 299 298 299 299 298 299 299 295 295 296 302 303 306 308 310 311 312 312 312 315 317 316 315 316 319 321 322 323 324 324 325 326 327 329 332 334 336 337 338 338 340 340 341 342 343 343 343 342 342 339 337 336 334 332 332 333 334 333 333 334 334 331 330 330 330 330 329 329 329 329 330 328 327 326 325 324 325
299 299 300 302 301 301 301 299 299 300 300 299 301 300 300 301 299 301 301 299 303 306 308 309 311 314 315 314 312 311 312 314 316 317 319 321 322 323 323 324 324 326 328 329 331 333 335 336 337 338 339 339 340 341 342 342 342 342 340 338 336 334 332 332 333 334 333 333 333 334 333 332 331 330 330 330 329 327 327 327 327 327 324 324 324 324 324
296 298 300 300 300 300 299 300 300 300 299 299 300 301 301 303 301 301 300 301 303 307 309 312 312 310 309 308 310 311 313 314 317 318 319 321 322 323 324 324 324 326 328 329 331 332 334 335 337 338 338 340 340 341 341 342 342 342 340 337 333 331 332 333 333 334 333 333 333 332 332 332 331 330 330 330 329 328 327 326 325 325 325 323 323 324 324
294 298 298 299 299 299 299 299 300 299 297 296 297 298 299 300 300 299 300 299 301 307 307 309 306 307 309 309 309 310 311 314 317 318 319 321 322 323 324 324 325 325 327 328 328 330 333 335 336 338 338 339 340 340 340 341 341 341 338 334 331 332 333 334 333 333 333 332 331 331 332 331 331 331 330 329 328 327 326 326 326 326 326 325 325 326 326
292 297 299 298 298 299 296 297 300 300 298 299 301 305 306 304 302 298 297 299 306 308 310 307 306 307 308 308 309 310 311 314 316 317 319 321 322 324 324 325 326 326 327 328 328 329 331 334 336 338 339 339 339 340 340 341 341 338 335 332 332 332 333 333 332 333 332 332 331 330 330 331 331 331 330 329 328 327 326 327 326 326 326 327 326 327 327
291 296 297 297 295 290 290 299 300 303 303 304 302 302 303 307 305 300 302 305 305 308 307 307 306 307 308 310 312 313 314 313 313 314 316 318 321 323 324 326 327 328 328 329 329 329 330 333 336 339 340 340 341 341 340 338 337 335 334 333 332 332 332 332 332 333 332 331 330 331 331 331 331 330 329 329 328 328 328 328 327 326 326 326 327 326 327
291 295 297 294 289 290 302 308 309 307 307 308 306 305 306 308 309 309 306 307 307 309 310 309 309 311 311 312 313 314 315 315 315 314 314 316 320 322 323 324 326 327 329 330 330 329 330 331 333 336 338 339 339 338 337 337 336 335 334 333 332 332 332 333 333 332 332 331 330 331 332 331 330 330 330 329 328 328 328 327 327 326 326 326 326 328 327
292 292 292 289 290 300 309 309 310 312 310 308 307 305 306 308 309 308 307 306 307 308 309 310 312 313 312 313 314 314 315 316 316 316 316 318 319 319 322 323 324 325 327 329 331 332 334 332 332 335 337 338 337 334 335 335 334 334 333 332 332 333 332 332 332 332 332 331 332 332 331 330 329 329 329 329 329 329 329 328 327 327 326 326 326 327 328
292 289 289 292 302 304 306 306 310 306 306 306 305 299 302 308 309 308 306 307 309 310 310 312 313 313 313 312 312 315 315 317 317 319 318 318 317 317 319 323 324 327 328 330 331 332 333 334 334 335 336 337 334 332 333 333 334 333 333 332 332 332 332 333 332 332 332 332 332 331 331 330 329 329 329 329 329 329 328 327 326 325 326 326 328 327 326
294 290 289 294 293 292 298 306 312 315 310 308 310 307 302 308 310 311 309 308 309 310 311 311 311 314 311 308 310 314 314 319 319 317 317 318 317 317 318 321 324 321 326 331 334 335 334 335 336 335 335 334 331 331 331 331 332 332 332 332 333 333 333 333 333 333 333 332 332 331 331 330 329 330 330 330 329 330 328 327 326 326 326 325 325 326 326
294 292 289 287 289 295 302 306 310 312 312 308 310 305 299 306 310 311 310 309 311 311 311 312 314 312 307 305 309 311 314 317 317 317 316 318 320 324 325 330 331 329 328 332 334 335 334 335 334 334 332 331 330 330 330 331 332 331 331 331 333 333 334 334 333 334 334 333 333 331 331 331 331 330 330 330 330 329 328 327 327 325 327 325 323 323 326
297 293 290 291 295 298 306 309 311 313 314 312 307 296 295 306 312 312 311 310 309 310 310 310 310 308 305 305 309 310 314 315 318 317 319 320 320 322 328 333 335 335 335 334 329 330 332 333 331 331 330 330 330 330 330 330 330 331 332 332 333 335 334 333 333 334 334 333 332 332 332 332 332 331 331 330 328 327 326 326 325 323 326 324 323 322 323
298 299 295 297 301 308 311 310 311 312 311 307 299 292 299 311 311 312 311 310 310 309 309 309 307 308 307 308 311 312 314 315 315 316 318 320 322 326 330 333 340 333 331 331 332 332 333 332 330 330 330 329 329 330 330 329 329 331 333 333 333 333 333 332 332 333 333 332 331 332 333 333 332 331 329 327 325 325 325 325 323 323 323 323 321 320 320
297 295 294 296 299 307 310 312 311 313 305 295 295 305 311 313 312 312 311 311 311 310 310 310 308 310 312 316 313 315 315 314 315 315 318 324 328 333 335 333 329 327 327 328 329 329 330 330 330 330 330 330 329 328 328 328 330 332 332 332 332 332 331 331 331 332 331 331 332 333 333 331 326 326 325 326 326 325 324 323 323 322 322 321 319 318 318
299 296 293 291 293 304 310 310 310 311 300 300 305 311 312 316 313 314 314 312 311 312 311 311 311 312 312 313 314 315 317 317 317 319 320 317 327 328 327 327 327 326 325 328 328 327 329 330 330 330 330 330 328 329 327 329 331 331 331 331 330 331 330 330 331 331 330 331 331 331 330 328 325 324 324 325 323 324 323 323 323 322 321 319 318 317 317
294 293 290 291 300 306 312 309 306 309 309 311 313 312 310 312 313 314 315 315 315 315 315 314 315 314 314 315 315 317 317 317 317 318 320 324 326 328 330 328 326 327 323 324 325 325 327 328 328 329 329 330 329 328 328 329 328 329 329 329 329 329 330 330 329 330 331 331 331 329 328 327 326 324 323 323 322 322 321 321 319 320 318 317 316 315 316
300 298 301 306 309 310 311 312 310 310 311 313 313 312 311 310 310 313 313 314 316 317 317 316 316 316 318 318 318 318 318 318 317 318 319 320 322 326 327 326 326 323 322 322 322 324 325 327 327 327 327 327 328 327 326 328 327 328 329 329 328 328 328 328 328 328 330 329 328 328 327 327 325 323 321 320 320 318 318 317 318 318 317 317 315 316 314
311 310 310 313 309 309 310 313 313 312 312 312 312 311 310 310 311 311 310 311 312 314 318 318 317 317 317 318 319 320 321 321 320 321 319 320 322 325 326 325 326 323 321 322 323 324 324 325 325 326 325 326 325 324 325 328 326 327 328 329 328 327 327 328 327 327 325 324 324 326 327 327 326 324 321 320 320 317 317 317 317 318 317 316 316 315 314
298 296 306 308 309 310 310 311 312 313 313 312 312 312 312 312 313 312 311 311 311 311 312 312 312 315 318 319 321 321 322 323 323 322 320 320 321 322 323 325 327 321 322 322 323 324 323 322 324 325 323 324 325 326 327 326 327 327 328 329 329 328 326 325 325 325 324 323 324 325 324 324 323 322 321 319 319 320 319 318 318 318 319 318 317 315 314
299 303 307 310 310 310 311 309 309 309 310 313 315 315 316 316 318 317 316 316 314 314 313 312 312 311 312 315 318 321 325 324 324 323 323 322 322 323 323 325 324 321 321 320 323 323 323 322 324 324 325 327 327 327 327 328 328 328 328 328 327 326 325 326 326 326 326 331 325 318 317 319 320 320 320 321 320 320 320 319 318 317 318 318 317 316 314
307 310 310 312 309 310 311 311 310 310 311 310 311 311 313 313 313 314 314 315 315 315 314 315 314 314 313 315 319 321 322 322 320 320 322 324 322 321 323 324 323 319 320 321 321 324 323 322 325 325 324 324 325 325 327 328 329 328 329 330 327 325 325 326 325 328 326 326 317 314 310 307 304 303 306 310 312 309 306 306 312 319 319 318 318 316 317
302 303 306 312 305 304 310 313 312 311 310 310 310 311 312 311 313 313 312 312 313 313 314 314 314 313 316 316 320 322 321 320 320 320 320 322 324 324 324 325 324 324 323 322 322 323 322 322 320 317 316 316 316 318 321 324 327 326 326 324 323 323 324 326 325 322 318 317 316 315 314 312 308 306 302 296 299 308 307 307 302 301 309 314 315 313 309
301 308 311 310 309 308 310 313 314 312 312 312 311 313 312 312 312 311 311 310 310 311 312 317 315 312 315 316 318 321 324 322 323 324 323 323 324 324 324 322 320 320 319 322 321 322 320 317 315 315 314 314 314 315 316 318 319 321 322 322 322 323 325 325 324 321 319 317 317 316 315 313 311 309 305 304 295 294 299 301 298 296 297 300 303 307 311
313 313 311 311 307 305 306 308 309 310 311 311 310 310 310 309 309 309 308 307 307 306 308 309 311 313 315 318 320 319 319 320 323 325 326 326 324 325 324 322 320 320 319 320 321 320 317 316 316 317 317 317 317 317 316 317 318 319 320 320 319 320 323 326 327 324 320 320 318 317 315 313 310 309 308 306 305 298 294 294 296 294 294 295 296 299 302
309 311 308 308 307 307 308 308 309 310 312 312 311 312 310 309 310 310 309 309 308 309 310 311 313 315 315 317 320 320 319 320 322 324 326 326 326 323 322 321 318 318 317 319 320 318 316 317 318 318 318 319 321 322 321 320 319 319 320 321 322 323 324 327 327 329 323 320 319 316 313 311 310 310 309 309 307 305 304 296 292 291 293 294 294 295 295
307 307 308 309 309 309 310 309 308 308 308 309 309 309 315 320 314 311 310 310 310 310 311 311 311 312 313 314 316 320 322 323 325 326 323 323 323 323 321 321 320 318 317 318 318 317 316 318 318 319 320 321 322 323 325 325 323 321 320 321 321 320 322 322 321 322 323 319 316 314 313 311 311 311 313 311 309 307 305 305 305 300 295 292 291 293 293
308 308 310 308 308 308 308 306 305 308 308 308 308 307 308 309 315 311 309 309 309 310 310 311 311 310 310 312 315 315 317 321 324 323 322 323 325 324 323 322 321 321 320 319 318 318 320 320 321 320 319 320 322 323 324 323 322 321 319 318 317 326 331 329 321 321 318 316 314 313 313 313 314 315 314 314 312 309 308 307 305 304 302 303 296 292 297
307 309 309 304 303 304 305 307 307 308 309 309 308 307 307 307 308 308 307 307 307 307 308 309 309 308 308 309 309 309 310 310 313 318 321 322 321 321 320 320 320 320 320 320 319 322 322 319 319 320 319 318 319 320 320 320 320 320 319 318 318 318 322 329 325 320 318 317 316 316 315 314 315 315 316 315 314 311 308 309 308 306 305 303 303 299 294
306 307 308 307 307 307 308 308 308 307 307 308 309 308 308 306 306 306 306 306 306 306 306 307 308 308 307 307 308 308 309 309 310 312 317 320 320 321 322 321 322 322 321 321 321 320 320 319 319 319 319 320 322 323 323 321 320 320 321 322 324 325 325 323 321 320 320 319 318 317 318 316 316 316 316 315 314 312 311 310 310 308 305 304 303 303 304
305 306 306 306 307 307 306 305 305 306 306 307 307 307 307 306 305 304 305 306 305 305 305 305 306 306 307 307 308 307 309 308 309 312 318 322 320 319 321 321 322 321 321 319 319 319 318 318 318 318 319 321 322 322 323 322 322 322 322 323 323 323 323 324 322 321 320 319 318 322 318 316 315 315 316 314 314 313 312 311 311 309 305 305 308 304 303
305 306 306 306 306 305 305 304 305 305 306 306 306 306 306 307 306 306 306 306 306 306 305 306 306 306 307 307 307 308 309 309 309 314 319 318 318 320 320 321 319 318 318 318 318 318 318 318 318 318 319 321 322 323 323 322 321 322 321 322 322 322 323 322 322 319 319 320 319 318 317 317 316 317 316 315 315 313 311 312 312 309 308 306 306 305 304
303 304 304 304 304 303 303 304 304 304 305 305 305 305 304 305 305 306 307 307 307 307 306 306 306 306 306 307 309 310 310 310 312 316 315 315 315 315 318 322 324 325 319 319 319 319 318 318 317 317 319 322 323 323 322 321 322 322 323 325 322 321 321 321 320 319 320 321 318 317 319 317 316 316 317 317 314 312 311 311 310 309 307 307 306 305 304
302 301 301 302 303 303 302 302 303 303 304 304 304 304 305 306 307 309 309 308 307 308 307 307 307 307 307 309 310 311 311 312 313 313 314 314 315 316 317 319 319 320 319 320 319 318 318 318 318 319 320 322 324 324 324 324 323 321 321 321 321 322 324 320 320 320 323 320 316 315 315 315 314 315 314 316 315 314 312 312 312 312 310 308 306 304 305
303 301 301 302 302 301 301 302 303 304 304 305 305 305 306 308 309 309 310 310 308 308 307 307 308 308 308 309 310 312 314 313 314 313 312 312 313 314 316 318 318 318 317 317 317 317 318 320 321 322 323 323 324 324 324 323 322 321 321 321 321 319 318 318 319 322 320 319 317 319 317 316 313 313 316 316 315 314 315 315 315 314 311 309 305 304 302
306 305 305 305 305 306 306 304 304 305 305 304 306 306 306 308 309 309 315 310 307 307 308 309 309 309 308 309 312 314 315 313 313 311 311 312 313 313 315 316 315 316 316 316 316 318 319 321 321 322 323 325 325 325 324 322 321 319 320 320 321 319 320 320 319 318 318 315 313 312 312 313 313 317 316 313 312 312 314 316 316 314 309 306 304 304 301
307 306 306 306 306 307 305 305 306 307 306 305 306 307 308 309 310 309 309 309 310 310 309 309 310 309 308 308 312 315 315 313 310 312 312 312 312 312 314 314 314 314 314 315 316 318 320 323 328 328 323 322 322 322 322 322 321 320 320 319 320 320 320 319 318 316 315 313 313 313 313 316 316 314 316 314 314 313 311 312 312 312 307 305 304 303 302
308 307 306 306 306 306 306 307 307 307 307 307 307 307 308 308 308 308 312 311 311 311 310 311 311 309 308 309 313 312 312 312 313 313 312 312 311 312 313 313 314 315 314 312 315 320 320 323 330 330 325 321 319 320 326 327 319 317 317 315 315 316 314 312 313 312 312 313 314 314 315 315 313 313 315 312 310 310 310 309 312 307 305 306 305 304 303
308 308 307 306 307 307 307 307 309 308 309 308 308 309 310 309 309 310 311 311 311 311 312 312 311 310 310 311 311 310 310 312 313 313 311 312 311 311 312 312 313 314 313 314 318 319 318 326 331 324 319 319 319 321 326 328 325 315 314 315 315 315 315 312 312 312 312 311 314 311 312 310 309 309 310 308 308 310 309 310 310 307 306 306 305 304 304
307 308 308 308 308 307 307 308 309 309 310 308 308 308 312 312 313 311 311 311 311 314 313 311 311 310 309 308 310 310 311 313 314 314 314 312 314 312 312 312 313 314 315 316 317 319 326 324 321 317 317 317 318 320 325 327 322 313 314 315 314 313 313 313 312 311 310 310 309 308 308 308 308 308 307 307 307 309 313 311 308 308 305 305 304 304 304
307 307 308 309 308 308 308 307 308 308 310 310 309 309 311 313 312 310 310 311 311 315 311 310 310 311 311 309 309 310 311 311 313 315 314 313 313 312 312 313 315 315 319 325 321 321 325 325 318 314 315 315 317 318 321 321 318 312 309 310 311 312 312 313 310 310 309 309 310 316 308 309 308 309 308 308 308 309 309 309 309 307 306 305 303 303 305
307 307 308 307 308 308 308 307 307 307 308 309 309 310 311 311 310 309 310 311 311 311 309 309 311 312 310 309 311 312 312 314 314 312 312 312 311 310 310 309 313 317 319 318 320 322 324 319 315 312 313 314 316 321 315 317 309 306 305 306 307 309 309 309 311 311 310 310 312 309 308 306 308 309 308 307 307 307 307 308 307 306 304 303 302 303 304
308 308 307 307 307 307 308 307 308 307 308 308 310 312 311 311 311 310 310 310 311 311 309 309 317 314 311 310 311 312 311 311 312 312 312 311 311 310 309 309 313 316 323 323 323 322 318 316 316 317 313 314 316 319 318 312 303 304 305 306 307 310 308 307 308 308 309 309 307 305 307 306 305 305 306 307 306 307 306 306 304 305 304 304 303 303 302
309 308 307 307 307 307 308 307 307 308 308 309 309 310 311 310 310 310 310 309 311 311 311 310 312 315 312 309 308 309 310 311 311 311 311 312 313 312 310 311 312 314 325 320 317 312 312 311 311 312 319 317 316 319 316 303 302 303 304 306 309 307 306 305 304 304 302 301 301 302 302 303 303 304 306 306 306 306 305 305 304 304 305 303 302 302 302
309 308 308 308 309 309 309 307 307 307 307 309 310 309 309 309 310 310 311 311 311 312 312 311 311 311 312 311 309 309 310 310 311 312 312 312 312 313 313 312 312 318 324 317 313 311 310 311 310 317 322 322 321 318 306 301 301 301 302 302 304 304 304 303 303 301 301 303 302 299 300 306 304 303 304 305 305 305 305 305 304 303 304 304 303 303 302
308 307 308 309 309 308 307 306 307 307 309 309 309 309 309 308 309 309 310 310 311 312 314 312 311 313 312 311 309 309 309 310 311 311 309 309 309 311 314 320 318 320 321 319 313 311 310 311 317 322 323 321 318 314 300 298 298 300 301 302 302 302 303 301 301 302 302 300 301 301 303 301 301 302 302 303 307 305 305 306 305 304 304 303 302 302 302
307 308 308 315 309 307 308 308 309 308 308 308 307 309 310 308 308 310 310 309 310 310 310 311 312 312 313 312 311 310 311 312 312 313 311 311 311 311 313 322 318 322 321 319 311 310 310 319 320 321 320 319 315 306 298 303 304 301 300 300 302 302 301 301 302 301 301 301 300 299 298 298 298 297 298 300 302 305 306 308 307 305 305 304 303 302 302
307 307 307 307 308 308 308 307 310 309 307 307 307 307 310 311 310 309 309 309 309 310 310 311 311 312 312 311 310 309 308 308 310 312 313 313 316 319 321 323 323 323 320 312 312 310 311 316 318 318 318 316 314 298 300 299 298 299 301 300 301 301 301 299 300 299 299 299 301 306 309 304 299 296 300 302 301 303 304 306 306 306 305 306 305 305 304
307 306 306 307 308 308 307 307 308 306 305 304 305 308 309 309 310 310 309 308 309 308 309 308 310 311 310 312 311 311 310 310 308 308 310 313 314 313 315 314 317 323 319 318 316 317 319 319 316 317 318 317 309 296 299 298 299 300 299 302 298 296 297 296 297 298 297 298 301 296 294 294 294 295 298 297 296 298 299 302 305 304 303 304 303 302 302
307 306 307 308 307 308 307 308 307 308 305 305 307 307 308 310 310 308 308 309 309 309 309 310 309 309 308 313 315 311 312 313 310 308 309 313 313 313 312 319 324 322 316 312 311 311 317 313 312 314 316 317 298 297 297 299 302 303 302 300 300 300 298 297 295 295 294 296 297 298 296 296 295 294 295 297 299 298 300 301 301 300 301 302 302 302 302
307 307 307 306 306 307 306 305 307 304 305 307 306 307 307 308 308 308 309 308 308 314 311 306 306 306 307 307 307 309 311 313 314 312 311 313 312 310 313 313 314 319 316 311 309 308 316 314 312 314 315 307 298 299 299 300 300 303 302 304 304 301 303 301 303 301 297 299 297 298 298 298 295 297 300 299 298 298 299 300 300 302 304 303 301 301 301
307 307 307 309 309 311 309 307 307 308 307 307 306 308 310 309 308 311 310 310 308 309 308 307 306 306 305 305 309 309 310 311 314 321 313 311 312 316 318 315 315 318 314 312 310 308 307 307 305 308 311 309 300 301 300 301 301 303 306 304 305 305 303 302 300 299 298 298 298 297 297 297 297 295 295 297 298 299 299 300 299 299 301 300 301 301 300
308 308 309 307 306 307 308 308 308 308 308 309 307 307 307 308 309 309 309 318 310 307 307 305 306 306 305 305 310 309 309 311 313 313 319 314 312 311 316 320 314 314 314 310 307 306 305 307 310 311 311 306 303 301 306 309 304 302 304 306 306 305 305 303 302 300 299 300 300 298 299 298 296 298 298 296 298 298 299 298 298 298 299 298 298 298 297
Wind_Speed
16 15 15 11 3 4 4 7 10 12 11 10 14 11 8 12 11 12 7 8 9 10 12 13 14 15 15 13 12 17 18 10 6 7 8 11 13 13 14 14 13 14 14 14 15 16 17 17 16 17 15 15 14 13 13 13 13 14 13 12 11 8 7 12 12 13 12 13 11 5 8 6 8 9 9 8 7 7 6 6 6 7 6 7 6 6 5
13 12 15 15 14 11 7 6 8 12 15 15 16 12 9 16 8 11 11 13 14 10 12 13 16 15 17 14 7 4 4 10 11 10 11 13 14 14 15 13 12 13 14 14 15 15 15 15 16 15 14 13 14 15 15 14 14 13 10 10 8 13 17 17 16 16 15 9 3 3 9 9 9 9 8 7 7 7 7 7 7 6 6 6 6 7 6
9 11 13 14 13 13 14 12 9 11 10 13 15 11 8 9 2 1 5 11 12 8 7 16 11 3 6 7 8 13 12 9 11 12 13 14 14 13 11 10 11 12 12 12 12 12 14 15 15 15 15 15 14 15 13 13 13 11 10 9 15 18 18 18 18 17 14 12 8 13 13 10 10 9 9 7 7 7 7 7 7 7 6 7 6 6 7
7 9 12 14 10 9 11 13 13 11 8 6 4 5 5 7 7 4 6 5 8 9 1 3 4 6 8 11 11 10 9 10 12 14 13 11 12 11 10 10 8 8 8 7 8 10 10 11 12 12 12 13 12 13 13 13 13 9 9 13 15 14 15 16 16 12 11 10 9 10 12 13 11 9 7 7 8 8 8 8 8 6 7 8 8 7 7
8 9 9 12 6 3 6 11 12 11 5 5 4 2 2 2 6 10 8 10 11 8 4 6 5 7 8 7 8 9 8 9 12 13 13 12 11 11 10 8 8 8 9 9 8 7 6 8 10 12 12 10 11 13 13 14 6 9 12 14 15 16 16 16 14 12 13 14 17 17 16 13 11 8 8 8 9 8 10 9 6 7 9 8 8 7 7
7 6 6 6 6 9 7 4 4 8 10 10 7 2 0 1 4 6 7 9 6 7 6 8 8 11 11 12 7 2 10 10 6 6 7 8 8 6 5 6 7 6 4 4 6 8 10 10 11 9 7 10 10 7 3 4 8 10 13 11 11 11 9 9 10 13 16 17 16 14 12 11 11 10 9 10 10 10 9 7 8 9 9 9 8 6 7
7 3 6 7 10 7 3 4 3 3 5 12 14 6 2 2 2 1 1 3 8 10 12 11 6 3 4 4 5 5 4 6 10 9 6 5 5 7 8 7 7 7 9 9 8 6 8 10 7 6 7 9 6 7 8 9 9 11 12 14 15 16 18 18 18 16 15 15 16 13 12 12 10 10 10 10 10 10 9 10 10 10 10 8 8 7 7
4 4 5 8 4 3 2 2 3 5 8 4 12 10 8 8 3 1 1 3 5 3 8 9 10 11 8 6 5 5 5 7 10 8 8 7 7 7 7 8 7 6 6 8 9 10 5 3 5 7 9 6 6 6 9 11 12 14 15 16 16 16 18 19 18 17 17 17 16 14 12 11 10 10 10 11 12 11 9 9 8 6 6 6 7 8 8
7 5 6 4 1 2 2 2 2 4 2 4 10 5 4 3 8 4 3 3 3 1 5 8 9 10 10 10 3 1 8 6 7 13 10 11 9 8 6 6 7 7 5 5 5 3 4 6 7 9 6 7 9 10 10 11 13 14 15 15 16 17 18 15 14 15 17 17 14 13 11 10 11 11 12 12 12 9 9 9 8 8 8 8 8 7 5
4 7 5 1 2 5 4 4 4 0 3 6 6 10 2 6 10 6 2 10 7 7 4 6 8 11 15 8 2 1 2 3 5 2 6 6 6 5 4 3 3 4 4 3 4 6 5 7 8 6 7 9 8 8 9 10 13 13 14 14 14 14 14 16 19 18 17 14 10 11 10 11 12 13 13 11 11 9 10 10 9 9 8 7 5 4 4
3 3 6 3 3 2 3 5 5 8 7 2 2 11 1 2 6 7 2 7 10 11 9 3 3 13 11 6 4 1 1 3 4 9 6 7 7 8 8 10 7 5 6 6 5 4 4 5 5 7 9 11 11 10 10 11 12 13 13 13 15 19 20 19 16 14 13 10 12 14 11 11 12 12 12 13 12 7 9 8 9 7 4 6 4 4 5
2 4 4 2 2 1 3 5 6 7 10 8 6 8 3 4 9 5 6 7 3 4 5 8 10 9 9 4 1 5 2 2 2 3 8 6 5 4 3 1 2 4 4 5 3 4 6 8 6 9 11 12 12 12 12 11 13 15 17 18 19 16 15 15 13 9 9 13 17 14 11 12 12 12 11 8 6 7 7 7 7 5 5 5 5 6 5
7 7 1 1 1 2 3 5 8 8 3 4 11 8 3 2 5 4 8 6 4 4 7 7 9 2 4 3 1 2 5 8 7 5 2 2 3 7 5 6 4 5 4 5 8 9 8 7 7 9 11 12 12 12 12 13 15 18 17 15 13 13 12 12 12 13 14 16 16 12 10 11 7 6 5 5 4 5 6 6 5 5 5 5 5 4 3
3 2 5 0 3 2 3 8 9 5 2 5 8 2 1 3 4 5 8 10 6 9 10 9 6 3 3 3 6 8 7 5 3 3 1 3 3 3 3 3 4 4 4 1 2 4 5 9 8 9 11 12 12 11 12 15 19 12 10 12 12 12 13 13 13 12 12 11 3 5 9 6 4 4 3 4 4 5 5 5 5 6 5 4 4 4 3
1 5 6 2 1 3 6 14 5 5 6 4 4 4 6 4 4 8 9 7 5 8 10 7 7 7 8 8 7 7 6 6 6 6 5 3 1 2 1 1 0 2 3 4 6 4 4 5 6 7 9 11 10 11 13 18 9 9 11 11 11 10 10 11 11 11 8 9 4 10 5 2 2 2 2 3 4 4 5 5 7 7 6 6 5 4 3
2 4 2 2 1 7 12 2 4 3 3 6 7 7 8 4 4 6 9 8 6 7 10 9 9 7 8 8 8 7 8 9 8 6 3 1 0 0 1 0 2 1 1 1 0 1 0 1 1 2 6 10 9 11 16 3 5 6 8 8 8 10 10 10 7 7 10 6 10 2 2 3 3 3 3 2 3 5 6 8 6 5 2 2 5 4 5
2 1 2 2 3 5 6 7 10 7 8 7 7 9 9 9 6 3 10 8 7 7 9 10 9 9 6 5 4 6 4 5 5 5 6 6 6 3 0 2 2 2 3 3 3 3 3 3 1 1 2 3 3 3 4 4 4 7 8 8 8 8 8 8 9 10 9 7 3 2 4 6 5 4 3 3 4 4 5 5 7 7 6 5 5 5 3
0 5 2 2 3 4 6 8 9 12 9 5 5 9 10 5 6 8 10 7 9 7 6 11 10 8 6 8 7 7 6 6 6 6 7 6 4 3 3 1 0 1 2 2 2 3 2 1 1 2 3 3 1 1 3 4 5 6 7 7 7 6 5 6 7 7 8 8 7 7 7 4 4 4 6 7 7 6 6 6 7 8 7 6 5 4 5
6 2 5 6 3 5 7 6 7 6 6 5 5 8 6 4 3 5 6 9 8 7 8 10 9 8 4 5 4 4 4 3 3 5 5 4 4 4 3 2 1 2 3 3 2 3 2 3 3 3 4 5 5 6 6 6 6 7 7 7 7 6 6 8 7 6 5 4 2 4 4 4 6 6 3 4 5 6 5 6 5 4 4 4 5 5 4
6 7 3 2 4 3 3 3 6 7 5 5 5 4 4 5 1 1 2 2 7 6 8 6 9 8 7 9 7 6 4 3 4 4 5 7 6 4 3 1 3 2 2 2 1 2 4 3 4 4 5 5 5 5 7 7 7 8 7 7 8 8 10 10 9 9 7 3 4 2 2 4 6 5 3 0 5 5 6 6 6 5 5 5 6 6 5
3 6 3 1 4 10 8 6 5 3 5 8 7 5 6 4 6 7 8 7 6 6 6 6 8 6 3 4 4 4 1 1 2 4 4 4 6 5 2 2 2 1 2 3 4 5 4 3 5 7 7 6 6 7 6 7 8 8 8 7 7 8 8 7 7 7 6 5 5 4 6 8 7 6 3 3 1 2 4 3 1 4 8 6 5 5 6
10 9 9 7 11 2 3 4 2 3 4 9 9 10 10 7 6 4 6 5 5 7 6 6 5 5 2 1 3 5 4 2 4 5 4 3 6 7 6 1 2 3 3 5 6 6 4 5 8 9 9 8 8 9 10 10 12 11 10 9 8 6 4 5 5 6 6 6 8 7 7 7 6 5 7 5 3 1 2 6 6 4 4 4 6 6 6
8 2 6 4 11 9 3 1 1 2 4 11 13 9 5 3 4 5 6 8 10 10 9 6 5 4 4 6 2 1 3 6 7 6 5 10 10 6 2 3 3 4 5 6 7 7 7 8 9 10 10 9 10 10 10 10 12 13 11 11 9 7 6 6 6 7 7 6 5 5 6 4 5 7 5 3 8 10 6 5 5 8 11 12 10 6 7
8 6 8 6 8 11 6 4 5 6 5 12 11 8 8 8 8 8 9 7 8 7 7 7 5 4 6 5 5 4 3 5 5 5 4 2 1 1 1 2 3 5 6 7 8 10 8 9 10 10 10 8 9 9 10 11 11 10 9 8 7 6 7 6 7 6 5 7 7 6 7 7 6 7 7 7 4 7 8 8 9 10 10 11 11 10 11
8 4 9 10 13 11 8 7 7 7 4 8 10 9 9 10 9 9 10 7 5 7 7 7 6 7 8 9 9 6 5 4 4 4 4 3 2 2 2 2 4 5 7 6 7 9 9 10 9 7 8 6 6 8 10 11 13 12 10 10 8 3 3 8 10 13 12 9 8 8 9 9 8 7 8 8 8 5 5 9 10 10 10 10 11 11 10
8 10 11 11 10 6 1 9 12 9 6 7 9 8 9 10 10 10 9 7 7 8 9 9 10 10 9 10 10 11 10 8 5 4 4 5 3 1 1 2 2 4 6 7 9 10 10 10 9 8 7 6 6 6 7 7 9 10 10 9 10 10 6 5 5 5 6 5 7 8 9 8 8 6 5 6 7 7 7 5 5 7 9 9 7 8 9
7 3 14 19 17 14 13 10 4 5 7 8 9 8 7 7 9 7 6 7 8 8 8 7 6 7 8 8 7 8 8 9 9 6 4 4 3 2 0 3 4 5 3 2 4 6 7 5 4 3 4 4 5 5 5 6 6 7 9 8 8 12 21 14 7 7 6 6 7 8 7 7 7 6 6 4 5 6 7 7 6 6 5 2 2 3 4
13 12 10 13 8 7 5 5 5 10 11 10 9 7 5 7 10 12 12 11 10 8 8 7 9 10 10 9 8 11 12 11 10 9 6 1 0 1 3 5 6 7 6 5 4 5 8 10 11 10 6 3 2 1 2 3 3 3 4 4 3 5 3 7 7 6 6 6 7 7 7 6 6 5 5 5 6 5 4 4 5 6 4 3 2 1 3
11 10 10 9 7 5 6 10 13 13 12 10 10 10 11 11 9 9 9 7 6 6 9 8 5 6 7 7 7 9 8 9 10 10 10 5 3 4 5 6 7 8 6 5 4 4 4 2 1 1 1 1 2 3 3 4 4 5 4 5 4 3 4 4 5 6 6 6 6 6 5 6 6 5 5 5 4 5 5 6 6 6 6 5 4 2 1
5 7 9 9 8 11 15 11 9 9 10 9 11 10 9 9 9 7 6 6 6 7 4 4 7 8 6 8 8 7 7 7 7 8 9 6 4 3 3 5 6 5 5 5 5 5 5 4 3 2 1 3 5 5 6 6 6 6 6 4 4 6 5 5 5 5 6 6 6 6 5 5 5 5 5 5 5 5 6 6 6 6 6 6 5 6 7
8 10 11 11 12 11 11 7 6 7 7 8 9 10 11 9 8 8 7 6 6 6 5 5 5 6 7 6 5 6 5 7 7 7 7 5 3 0 3 4 6 5 6 6 6 6 5 3 2 3 1 2 3 4 5 6 6 7 7 6 4 6 9 8 5 5 5 5 4 5 4 4 5 5 5 5 4 4 3 4 6 5 5 6 6 6 6
12 13 13 10 9 10 9 7 8 8 7 7 10 9 6 5 5 5 5 6 5 4 5 7 8 7 6 4 4 6 7 7 7 5 3 4 3 2 2 4 5 6 7 7 7 7 7 5 5 1 1 4 6 6 7 8 7 7 6 6 6 5 4 5 3 3 3 3 4 4 5 5 5 4 4 5 5 4 4 4 3 4 5 6 6 6 5
10 9 10 9 8 9 7 5 7 7 6 7 6 4 4 3 3 3 3 3 4 5 5 6 5 6 6 6 6 7 7 7 5 3 3 3 4 4 4 5 7 8 7 6 5 5 5 7 4 3 6 7 7 6 6 7 8 7 5 6 5 4 2 2 3 4 4 3 3 2 3 2 3 4 4 4 3 3 3 4 5 6 6 6 6 5 5
11 7 4 4 4 6 6 6 5 6 5 5 5 5 5 5 4 4 5 5 6 7 6 6 5 5 5 5 6 6 6 7 8 5 2 3 3 4 4 6 7 8 8 8 8 7 6 6 6 6 7 8 7 7 7 5 3 5 6 5 6 5 4 4 3 3 5 4 3 4 6 5 5 5 4 5 6 6 5 5 5 5 5 4 4 4 5
7 5 4 5 4 4 4 4 5 4 4 5 6 5 4 3 4 4 4 4 5 5 6 5 5 5 4 5 5 6 5 5 4 0 2 3 3 3 4 6 6 7 6 5 4 4 5 5 6 5 4 4 4 4 5 6 6 6 5 5 5 4 4 3 4 4 5 5 5 6 5 4 3 3 2 3 4 3 4 5 5 5 5 5 5 4 4
7 7 7 6 6 5 5 4 4 2 1 2 1 2 3 4 4 4 5 5 5 5 5 6 6 6 6 5 5 6 6 3 1 4 4 4 3 3 5 6 6 6 6 4 2 3 4 6 9 9 6 3 2 3 3 5 6 6 5 5 5 4 4 4 5 4 5 6 6 5 4 5 4 2 2 2 2 2 3 4 5 4 5 5 5 5 5
5 4 4 4 4 4 5 5 4 4 3 2 3 3 3 4 3 3 4 5 6 6 6 7 7 8 8 6 4 2 1 1 3 4 4 3 3 5 6 7 8 7 5 3 2 1 1 3 11 15 8 4 4 4 6 10 6 5 5 6 5 5 5 5 4 5 5 5 6 4 3 3 3 3 3 3 3 3 3 4 4 4 4 5 5 5 5
4 4 4 4 4 4 4 3 3 4 4 4 3 2 2 3 4 4 4 4 4 5 4 4 4 6 7 6 4 2 1 3 5 5 2 1 1 3 4 3 4 2 2 3 3 2 5 5 12 9 6 5 5 5 7 11 9 6 5 5 4 5 4 4 4 4 5 5 3 3 3 3 4 3 3 4 4 4 3 4 4 5 5 5 5 5 5
7 5 5 5 4 4 3 4 4 4 4 3 3 3 3 3 4 4 5 5 5 4 5 6 6 5 5 4 4 3 2 4 5 6 5 3 2 3 3 2 4 4 4 2 4 5 4 6 7 6 6 5 4 5 8 11 9 6 5 4 4 3 3 3 4 3 3 2 3 3 3 3 3 3 4 5 5 4 4 4 4 4 5 5 5 5 5
5 6 5 5 4 4 4 4 4 4 4 3 2 3 4 4 4 4 4 5 5 4 4 4 5 6 7 5 4 4 3 2 2 3 3 4 3 4 3 1 0 2 0 5 4 5 8 14 9 7 4 3 5 6 5 8 7 5 5 5 4 3 2 2 1 1 1 2 2 3 3 3 3 4 4 4 5 5 5 5 5 4 4 5 5 5 5
4 4 4 4 4 4 4 3 3 3 3 3 3 3 3 3 3 3 4 5 6 4 3 3 3 5 4 4 4 3 3 3 4 4 3 3 4 2 2 1 1 0 8 9 7 2 9 8 8 7 5 6 6 6 6 8 7 6 6 5 4 3 3 2 2 1 1 1 1 2 2 2 3 5 5 5 5 5 5 6 6 6 6 6 6 6 6
4 4 4 4 3 3 4 3 2 3 4 3 3 4 4 3 2 2 3 3 4 4 4 4 6 5 2 2 2 3 4 5 3 3 3 1 0 3 2 1 2 2 6 6 5 3 4 5 4 6 6 6 6 10 9 6 6 6 5 4 3 3 3 2 2 1 1 1 2 2 2 2 3 3 3 3 5 5 5 5 5 6 6 6 7 7 7
4 3 4 3 4 3 3 3 3 3 3 4 3 3 4 4 3 3 3 4 4 5 5 5 4 6 4 2 3 5 6 4 4 3 3 5 3 3 1 4 1 1 6 6 5 3 4 5 5 4 7 7 6 12 10 6 6 6 4 4 3 3 3 3 3 3 3 4 2 2 3 4 5 5 5 6 6 6 5 5 6 6 6 7 7 6 7
3 2 3 3 4 3 3 3 3 3 4 5 4 4 4 3 2 2 3 3 4 4 3 5 6 4 3 0 2 3 3 2 2 3 4 5 9 8 3 1 3 4 10 6 5 5 5 5 6 8 12 13 13 11 6 5 5 4 3 4 3 4 4 3 2 2 3 1 2 1 1 1 1 3 4 5 6 6 6 6 6 6 6 6 7 7 7
3 2 2 3 3 3 3 3 3 3 4 4 4 4 3 3 4 3 2 2 3 3 3 3 4 6 4 1 2 3 5 4 4 4 3 2 2 6 2 4 3 2 6 8 5 5 5 5 8 12 10 12 12 10 6 5 5 4 4 4 4 4 4 4 4 3 3 2 2 2 2 1 2 3 4 5 5 6 7 7 7 7 7 7 7 7 6
3 2 1 2 2 3 3 2 3 2 1 2 3 3 3 3 3 4 3 3 4 4 3 3 4 4 5 2 1 2 2 2 3 4 4 5 6 4 2 4 3 4 8 9 4 5 6 7 9 10 10 11 11 7 6 4 5 5 4 4 4 3 3 3 3 3 3 3 3 2 2 1 0 1 3 5 6 6 6 7 6 6 7 7 8 8 8
3 3 2 1 3 3 3 3 2 2 3 4 5 6 6 5 5 4 4 4 3 3 4 3 3 4 3 2 1 1 2 1 0 2 5 5 5 5 5 6 7 10 8 6 5 6 6 5 7 10 10 11 10 6 6 6 6 5 5 4 5 4 4 4 4 5 3 3 2 1 1 1 0 2 2 3 3 5 5 6 6 7 7 7 7 7 7
4 4 4 3 4 3 3 3 4 4 3 2 3 4 4 5 5 5 4 4 4 3 3 3 3 3 3 3 1 3 3 3 1 4 3 5 4 2 2 3 4 8 8 7 7 6 9 9 10 9 10 10 6 6 6 6 4 5 5 5 4 4 3 3 3 4 4 3 2 3 3 3 3 2 2 3 3 3 3 4 5 6 5 6 7 8 8
3 3 4 3 3 2 3 3 4 4 5 4 3 5 4 4 5 4 4 4 5 5 5 4 4 4 3 2 2 2 3 3 3 2 3 4 4 4 4 3 6 9 6 5 5 5 8 10 10 9 10 9 6 6 5 5 4 4 4 5 4 3 3 4 4 5 4 5 4 4 4 3 3 3 4 4 4 4 3 4 4 5 5 6 6 6 7
3 3 3 3 3 4 4 4 5 6 5 3 4 5 4 3 6 7 6 4 4 5 5 5 5 5 4 5 3 3 3 4 4 3 3 4 4 3 3 3 3 6 6 6 4 5 7 10 9 8 7 5 6 5 5 6 5 5 4 4 3 3 3 3 5 5 5 4 5 4 4 4 4 4 3 3 4 5 4 5 4 5 7 6 5 6 6
5 3 4 3 3 5 4 4 5 5 5 5 4 3 3 3 5 5 6 6 4 4 6 5 5 5 4 3 4 5 3 3 3 4 3 4 4 5 5 5 5 5 5 5 5 6 6 6 6 6 6 6 6 6 6 6 6 6 5 5 5 4 4 4 3 4 5 5 5 5 4 4 4 4 4 4 4 4 4 3 3 3 5 6 7 7 7
4 4 4 3 4 4 4 5 4 4 4 4 4 3 3 3 3 6 6 7 4 4 4 4 6 6 3 2 3 4 4 3 3 3 3 3 4 5 5 6 5 5 6 6 7 6 6 7 7 8 7 7 6 6 6 7 6 6 6 5 5 6 5 5 4 4 4 5 6 5 5 5 5 5 4 4 4 4 3 4 4 4 3 3 4 4 5
Wind_Direction
219 212 224 221 179 192 213 213 194 197 197 184 187 198 182 143 192 202 231 179 187 214 206 202 200 193 199 197 201 202 199 179 156 164 170 180 190 196 199 202 199 197 198 201 201 203 206 205 204 206 206 208 209 211 213 208 203 202 194 188 184 163 106 90 112 119 150 186 198 225 254 214 206 210 208 209 212 212 210 211 212 211 208 203 200 204 215
223 223 222 235 232 244 236 227 238 209 187 191 192 200 169 177 189 196 184 176 201 198 205 201 206 204 197 199 186 99 137 187 184 175 179 188 194 197 200 201 200 201 205 203 204 204 205 205 207 207 208 208 207 206 207 204 202 201 179 179 138 99 107 128 143 153 173 182 109 242 264 242 225 215 209 207 212 217 218 217 214 211 206 202 200 201 207
234 225 220 228 229 230 243 242 221 229 219 199 200 189 177 190 193 104 151 177 219 249 215 203 204 129 61 79 151 186 192 177 180 182 188 193 196 200 202 199 201 206 209 211 209 206 207 206 206 206 207 208 206 209 208 204 203 192 171 128 115 133 142 150 152 168 164 129 176 220 236 246 233 214 208 205 212 220 223 220 216 212 204 204 207 206 205
245 225 211 224 223 222 234 247 246 227 185 200 209 195 191 160 195 142 113 177 247 256 180 80 100 149 156 171 181 188 191 186 182 186 189 190 194 195 198 201 201 207 213 216 214 215 215 214 213 211 211 211 205 208 207 204 202 171 135 125 139 141 145 153 162 149 119 131 204 231 244 241 233 217 204 202 212 218 220 220 219 208 205 211 209 208 212
228 230 196 203 184 195 258 248 241 232 194 170 154 103 128 224 143 127 167 215 217 211 154 142 175 169 187 183 184 185 191 187 182 181 184 190 190 193 193 190 198 202 207 210 210 214 213 213 212 214 212 208 210 209 204 209 162 123 126 139 143 148 153 153 149 118 125 176 211 222 223 224 225 211 204 205 211 214 219 216 201 201 213 211 215 213 214
226 223 163 123 130 203 229 234 190 166 166 155 131 121 239 205 149 197 201 221 181 119 150 172 186 175 190 190 196 185 173 158 174 185 185 186 186 180 184 193 195 206 202 205 214 214 214 215 215 215 205 209 217 212 198 91 120 135 137 133 123 118 106 96 104 133 167 200 217 220 220 219 217 209 203 209 211 214 217 210 205 210 215 216 216 212 215
220 181 118 143 201 222 239 319 262 102 84 110 111 117 89 58 70 27 308 264 162 187 177 170 140 112 83 100 131 119 131 157 155 162 164 161 162 173 178 193 205 205 202 206 213 217 218 216 209 184 192 200 183 160 151 143 134 133 129 128 136 144 149 159 163 169 181 208 220 217 213 215 212 209 210 214 214 216 213 211 210 211 212 215 220 221 223
56 100 157 199 230 240 301 54 44 106 122 138 94 47 10 11 11 147 165 286 298 212 150 144 148 132 127 93 101 140 136 147 136 138 156 180 166 174 187 181 202 198 205 206 203 215 214 183 193 193 203 181 159 143 134 142 147 146 149 151 157 159 166 171 171 175 185 205 211 208 208 211 209 211 214 214 217 217 216 220 219 216 218 213 221 227 228
162 175 169 194 180 59 19 54 22 359 130 131 109 108 344 356 356 352 126 64 81 105 130 136 133 131 109 100 88 204 156 162 162 151 166 164 181 181 189 180 195 204 201 206 212 171 165 178 182 202 176 151 147 146 151 152 155 158 157 163 169 174 177 172 165 188 197 204 207 200 196 201 209 211 215 220 222 214 216 218 211 210 215 213 219 224 224
125 124 92 80 46 142 252 240 264 331 288 262 146 101 347 335 355 351 259 125 112 101 90 121 143 120 104 101 120 329 341 183 156 178 146 154 160 174 170 207 231 200 205 189 182 183 170 183 191 166 151 148 145 148 153 154 158 166 169 172 172 173 169 168 184 197 196 195 194 218 203 207 210 212 215 220 222 205 208 212 210 214 213 219 215 207 201
49 67 125 168 131 241 213 275 303 320 332 323 241 78 59 300 350 338 25 98 122 128 129 149 140 120 122 149 188 269 244 192 178 147 160 161 167 171 161 164 173 197 188 175 172 167 157 192 187 156 150 146 146 161 164 168 167 166 176 176 176 181 182 180 182 199 190 168 201 224 210 211 215 217 215 216 218 193 209 211 216 209 197 202 209 199 205
85 137 83 96 208 138 338 299 321 313 312 260 84 98 228 298 340 334 50 50 27 59 77 92 67 89 115 160 277 313 336 124 29 102 130 121 127 126 92 49 157 156 136 111 113 160 187 202 179 159 155 155 161 166 177 167 174 183 187 190 188 181 172 170 179 178 143 166 211 217 215 216 216 217 217 216 208 190 207 203 204 185 187 181 188 206 205
51 75 77 27 351 297 291 304 311 314 318 68 110 164 223 328 352 51 82 60 65 80 64 72 84 21 154 180 242 28 62 58 37 27 42 108 141 147 158 158 137 133 148 161 172 191 202 188 174 165 156 158 171 176 171 179 190 196 193 186 177 172 165 163 169 173 173 185 207 217 219 227 226 226 206 202 184 188 196 183 172 171 167 177 183 187 163
76 113 85 189 237 228 288 316 317 291 47 74 139 204 177 76 42 30 76 89 76 82 74 80 87 82 44 58 55 58 50 74 52 27 18 84 73 39 79 113 121 142 147 204 220 208 184 186 180 171 166 170 178 174 178 193 206 189 172 174 169 165 167 167 169 173 170 176 147 292 270 261 231 202 173 159 176 190 171 164 168 173 174 162 164 178 175
59 48 70 12 58 269 1 323 336 25 99 211 193 121 25 22 58 80 60 67 62 81 83 74 82 66 46 42 40 36 31 33 24 20 3 0 12 113 109 132 229 140 172 199 220 216 189 192 185 179 176 175 176 181 190 209 185 163 168 159 158 157 152 162 172 167 142 104 161 239 240 195 150 138 130 156 174 174 169 171 172 168 160 167 164 166 123
108 63 103 182 236 283 322 346 97 325 71 136 105 103 86 26 40 62 80 50 50 61 85 81 72 72 73 43 29 44 30 18 5 355 341 335 359 10 320 120 181 166 164 139 86 19 7 329 310 257 198 186 180 186 211 149 126 133 135 142 143 154 160 163 152 93 92 143 226 237 144 123 116 115 139 151 178 184 180 175 165 130 95 168 148 160 207
106 142 204 310 309 279 317 76 93 84 65 78 113 105 111 108 68 77 73 68 53 52 70 66 67 62 58 84 68 71 17 6 7 352 345 334 325 315 182 154 152 135 153 150 138 142 155 169 189 339 342 318 245 214 31 93 108 125 133 137 143 152 159 149 126 140 153 159 143 154 139 135 134 141 140 145 189 210 175 140 110 124 203 200 186 197 180
74 62 67 341 346 358 40 52 84 99 91 67 86 101 103 88 114 96 94 87 76 57 59 77 47 44 38 56 44 37 23 8 335 342 340 345 336 344 340 339 350 93 113 114 130 143 138 109 80 39 42 67 93 130 130 103 116 116 118 116 119 132 144 147 148 133 124 132 146 161 162 170 146 140 159 180 191 185 173 160 158 167 173 184 180 163 186
70 59 323 15 6 5 12 59 44 56 86 106 112 93 83 88 49 79 100 103 100 94 79 83 87 76 59 53 35 50 57 30 346 333 321 308 309 306 290 262 194 116 133 110 133 159 109 50 75 74 84 92 118 119 118 125 115 121 116 121 119 116 87 63 51 59 69 78 114 172 156 141 139 155 166 188 186 179 180 171 171 166 158 166 170 177 181
120 162 200 6 4 9 8 27 88 84 80 83 73 87 118 109 32 154 130 67 61 62 57 65 75 60 34 43 33 9 22 25 7 349 324 315 308 307 271 221 160 132 102 112 114 76 90 113 107 96 96 97 108 120 135 141 135 122 122 122 125 121 117 123 127 126 119 147 249 231 150 112 103 93 70 157 203 203 189 179 168 175 178 174 178 179 171
64 73 67 161 48 30 22 28 29 43 86 87 72 66 72 79 76 50 44 62 89 86 91 71 70 70 67 107 101 83 41 63 34 7 311 287 286 281 287 43 58 89 110 104 107 122 130 116 103 98 96 95 98 103 114 124 125 116 117 122 120 132 137 144 151 152 148 137 129 105 75 56 54 42 16 344 61 64 16 1 304 193 175 178 174 165 155
152 159 181 161 102 74 341 16 2 56 49 76 69 52 32 20 56 71 78 51 49 67 63 67 73 71 359 347 131 152 162 202 220 204 226 280 263 255 252 209 132 120 121 132 130 125 116 111 109 105 99 95 90 90 92 93 99 100 98 94 92 88 85 88 95 86 97 117 107 101 104 116 93 72 54 54 7 57 67 6 21 26 117 166 165 143 114
178 198 140 144 124 122 141 176 275 24 61 74 70 74 93 64 40 44 59 53 36 32 22 24 53 24 347 324 319 190 200 232 226 220 191 217 228 226 226 137 144 133 139 135 127 122 126 122 115 109 106 108 104 98 95 97 100 104 106 101 102 102 105 115 115 113 109 94 93 80 68 94 152 159 146 69 54 51 46 48 55 73 90 99 103 107 125
68 109 142 157 115 112 114 95 73 55 57 90 91 85 81 77 70 63 60 53 62 44 33 28 25 25 21 12 16 353 290 270 282 274 249 228 265 292 269 227 175 145 136 139 134 134 134 128 124 122 117 106 99 99 97 96 88 84 85 85 90 108 107 106 98 101 106 134 135 171 194 204 181 170 158 130 75 42 44 41 46 60 80 90 94 98 112
112 117 104 98 102 103 103 92 78 67 52 79 84 77 75 74 68 71 73 67 65 70 58 37 27 31 32 21 26 19 346 316 319 283 288 272 236 188 202 200 196 163 151 146 139 138 139 137 135 132 123 126 120 116 118 120 122 122 123 126 131 131 184 168 167 175 179 189 175 172 171 176 186 181 160 155 140 128 42 48 56 53 51 71 89 97 99
107 99 95 86 70 61 118 79 50 38 40 65 76 67 60 69 70 65 61 61 55 49 50 37 26 16 28 25 17 9 12 360 329 341 341 342 328 317 291 259 197 160 148 145 144 147 149 147 147 149 146 161 156 152 147 145 139 139 141 156 162 162 186 218 207 209 199 182 170 176 173 173 173 163 162 153 151 145 129 107 63 45 43 42 56 91 97
28 46 78 55 44 38 30 56 58 360 35 43 63 69 61 58 61 67 66 55 51 43 42 36 33 22 25 24 14 18 21 358 360 1 6 19 10 312 260 75 37 8 9 96 124 139 144 149 157 149 140 157 184 195 180 163 142 143 156 164 164 185 185 183 198 206 190 168 163 162 160 161 160 165 153 139 141 147 159 161 153 146 145 128 24 20 122
53 37 64 102 104 87 68 51 56 50 44 41 38 46 49 56 50 43 34 29 28 29 31 29 25 21 18 10 15 4 5 7 359 339 332 274 232 23 92 99 98 99 93 75 44 29 24 6 1 2 348 337 354 54 96 101 122 153 152 135 143 153 208 206 181 176 168 168 162 159 162 163 163 153 149 148 157 167 154 140 140 136 135 135 144 153 124
50 59 60 75 97 117 86 55 45 42 38 33 43 38 33 41 39 40 32 20 12 23 23 9 17 29 19 6 16 8 358 353 347 339 322 287 202 158 139 119 120 119 114 110 99 89 103 131 187 181 307 336 90 107 113 119 136 133 117 125 138 136 163 158 155 150 151 155 160 164 160 157 153 150 149 156 157 154 153 148 145 160 154 141 123 94 286
63 72 72 69 62 59 56 48 45 40 39 34 39 37 36 40 36 24 21 9 10 32 3 357 18 17 12 12 6 1 347 330 316 309 308 291 229 163 140 135 119 106 102 99 112 125 124 144 154 128 32 109 118 128 125 115 109 107 108 116 126 142 147 146 137 138 142 153 159 148 145 149 153 151 151 155 165 165 159 153 162 155 150 165 172 168 167
67 62 62 57 54 53 60 54 48 44 39 35 40 35 24 29 36 26 12 6 16 17 8 21 17 8 12 6 340 335 332 330 331 328 319 329 334 302 138 138 137 147 144 146 135 120 109 99 86 85 91 108 112 100 98 98 102 101 105 104 106 119 123 124 130 138 139 129 127 134 136 136 143 144 147 158 164 173 175 157 156 156 156 166 176 180 185
67 54 48 42 46 50 44 35 38 34 25 27 34 31 19 31 28 14 4 9 358 350 360 16 9 352 333 331 345 349 345 337 338 338 351 356 31 60 109 120 118 122 122 121 120 124 132 124 89 62 174 105 98 100 93 76 67 63 59 79 89 65 68 112 107 109 117 119 125 133 148 154 154 149 143 160 161 144 123 120 149 171 175 182 188 194 182
56 43 32 25 30 40 42 28 37 24 22 26 19 8 15 26 25 17 9 351 353 3 10 0 346 333 329 343 359 352 344 333 335 11 13 28 29 42 47 69 89 99 96 93 95 100 102 98 86 33 34 35 38 46 70 96 100 98 97 101 105 119 148 96 108 110 110 107 110 113 99 85 108 120 151 162 154 146 150 175 173 177 184 193 195 185 176
74 90 90 56 74 59 40 14 15 27 16 24 24 20 23 17 13 358 359 356 357 355 352 335 322 315 324 349 348 343 338 349 344 344 26 40 58 58 72 87 97 104 109 120 124 124 121 112 102 77 76 81 77 64 52 41 66 111 119 123 123 125 123 126 134 111 103 90 85 81 83 95 104 119 130 149 161 166 176 179 183 181 181 186 185 172 168
64 64 60 44 39 44 51 43 29 18 35 28 12 9 359 357 4 348 343 360 345 312 305 313 314 315 327 342 348 341 339 334 310 258 103 84 84 85 86 92 89 90 86 69 67 71 64 65 66 77 63 45 80 110 146 154 136 125 117 111 109 112 114 109 99 99 103 104 101 106 107 104 105 85 97 130 147 152 180 180 184 177 172 171 172 160 165
36 35 28 25 21 24 31 27 17 28 52 50 355 333 336 342 340 344 334 319 306 311 314 318 319 325 331 347 343 337 331 330 100 125 124 113 87 79 89 92 96 97 100 82 78 127 127 129 135 131 125 158 143 133 131 114 96 97 107 108 110 106 103 96 101 99 105 111 104 104 110 112 105 116 187 187 162 138 146 165 175 174 169 168 165 168 169
27 40 30 22 14 17 16 11 4 359 340 333 339 353 343 335 321 299 298 310 316 324 329 328 331 332 322 319 316 303 308 73 107 124 131 110 71 56 52 40 25 16 15 29 311 325 65 221 142 127 126 112 130 121 114 107 103 109 105 107 105 105 102 100 102 113 116 120 119 119 124 133 158 192 204 173 183 165 145 147 158 159 164 168 168 168 163
18 31 21 14 1 5 356 344 340 358 0 347 340 329 327 317 322 327 323 325 341 329 322 320 310 297 294 294 293 255 142 119 115 116 103 10 320 86 74 101 141 161 167 203 252 273 272 205 125 109 110 115 118 116 119 117 113 107 102 108 112 114 116 120 123 125 134 146 148 157 175 173 176 188 177 166 176 165 162 163 162 165 169 169 170 170 168
10 5 13 1 6 2 349 344 354 354 2 351 318 328 334 334 331 345 343 342 330 326 336 331 324 312 301 296 280 250 187 164 157 150 146 114 93 102 130 188 241 206 217 180 164 194 167 125 95 105 97 118 130 114 110 109 101 97 103 107 113 124 128 137 142 148 147 146 123 127 143 153 161 167 174 176 180 181 184 185 169 158 162 169 165 174 173
8 7 358 3 3 352 358 349 345 346 346 346 357 336 316 332 337 345 341 339 333 330 328 324 332 323 317 306 282 284 278 266 218 180 125 123 110 98 82 79 301 272 105 126 151 156 121 109 97 96 145 169 113 105 104 106 101 95 92 91 90 93 95 90 86 106 124 136 160 154 153 178 183 188 188 188 185 185 184 185 175 163 163 170 179 179 184
359 357 354 4 357 353 355 351 337 326 339 351 340 323 324 322 332 354 346 332 313 310 317 340 335 321 327 336 327 323 334 347 4 20 54 78 77 97 114 210 292 267 71 50 334 109 122 133 146 146 140 118 115 111 105 101 96 92 93 91 92 98 106 127 138 146 159 166 190 191 194 208 207 200 197 197 198 195 189 176 171 173 172 179 187 190 193
345 356 355 355 352 355 353 347 343 349 341 328 322 327 323 327 344 332 304 307 313 315 334 331 326 326 313 338 5 31 30 19 31 26 11 359 228 138 123 300 282 23 84 135 197 179 126 130 127 133 131 119 113 117 110 102 102 104 101 102 100 100 96 94 89 105 149 154 161 161 163 170 197 227 230 220 213 205 196 186 179 181 186 184 187 190 187
357 359 348 340 339 345 355 344 340 321 305 311 314 317 316 318 320 332 330 328 324 328 333 320 323 333 334 17 45 51 49 40 41 20 15 353 5 325 195 196 196 66 129 144 147 179 149 135 136 133 135 128 133 126 113 107 115 117 124 125 120 124 124 121 115 115 116 122 148 184 187 197 203 212 212 213 216 211 195 191 197 197 195 192 191 187 192
334 341 341 341 332 322 324 326 331 338 341 321 316 311 309 311 303 303 307 309 311 318 321 318 327 340 344 349 100 100 100 64 43 58 60 10 354 310 273 210 179 174 157 151 159 162 152 152 148 153 150 146 137 122 115 118 110 110 110 116 122 125 126 124 132 140 141 155 161 186 201 227 223 225 220 230 230 224 205 197 200 202 203 201 197 192 190
328 302 315 312 307 308 297 289 295 304 290 280 294 307 314 319 314 302 296 302 310 312 325 324 329 331 358 333 198 154 162 167 153 121 98 98 212 264 231 196 191 188 162 152 147 146 155 161 169 161 152 142 137 127 120 123 127 131 137 135 135 141 146 158 166 173 174 177 188 202 204 207 220 241 249 245 231 222 220 209 205 199 199 200 198 195 192
330 312 286 316 317 288 272 263 264 247 263 331 350 350 355 336 320 319 323 328 323 315 302 306 312 313 320 328 197 174 149 147 166 177 203 182 188 237 249 176 163 170 161 149 138 152 171 182 173 152 147 148 142 131 137 144 146 145 146 156 164 161 173 182 185 190 188 193 196 200 197 193 230 260 248 244 243 231 224 215 212 204 199 199 198 200 198
315 318 317 298 289 286 298 300 300 16 24 22 12 339 326 336 332 325 318 312 296 294 304 301 292 289 289 276 200 130 124 103 301 228 217 227 249 254 229 179 162 163 152 153 163 168 178 175 161 157 162 161 146 144 153 153 154 155 159 165 171 182 186 193 193 201 205 210 206 207 209 198 239 284 294 294 274 244 231 217 213 210 204 201 200 196 190
316 311 303 303 303 307 323 342 5 355 354 356 305 301 311 321 325 322 319 317 312 306 298 294 287 290 298 305 257 212 181 146 191 287 246 241 263 259 217 158 161 155 159 163 168 182 184 168 169 175 177 166 149 156 163 163 159 159 171 180 177 183 177 186 196 199 206 217 211 215 251 277 274 277 277 268 275 279 272 236 225 218 209 201 197 190 184
290 270 272 277 299 327 345 337 333 333 320 321 344 323 325 333 324 321 328 336 336 330 324 322 320 308 296 271 262 245 199 186 160 223 240 204 211 214 216 193 174 162 158 166 176 185 189 181 182 186 186 168 157 172 174 173 173 180 188 196 206 198 188 194 208 206 205 216 219 221 232 245 260 255 268 274 264 252 254 251 236 217 211 207 202 195 192
291 276 271 264 286 302 304 313 308 288 290 320 320 311 321 343 342 316 320 324 309 301 309 310 309 303 296 298 284 254 211 207 224 226 207 195 207 212 201 193 188 174 173 175 180 194 203 197 195 196 197 172 176 184 184 188 190 194 200 208 209 212 207 203 202 199 203 214 221 229 232 231 240 247 241 244 260 261 246 238 237 226 207 192 192 194 195
313 295 274 254 242 254 257 241 253 281 296 296 290 287 306 318 291 285 296 298 307 305 295 301 306 296 302 303 308 306 285 260 242 222 193 206 204 211 209 202 199 190 186 187 193 198 200 202 204 210 209 193 190 193 192 196 199 203 205 208 212 221 227 215 200 199 205 211 217 221 223 227 229 237 246 246 243 240 233 232 243 242 216 201 192 189 187
269 254 250 252 243 254 271 290 291 280 272 281 289 296 292 269 271 292 298 293 273 248 268 300 309 295 255 257 277 279 283 275 260 255 233 211 210 222 228 216 209 202 191 195 203 203 203 208 211 211 210 204 200 203 208 201 199 206 211 211 213 215 215 207 200 199 208 212 212 217 223 222 216 221 233 229 229 229 225 218 212 206 204 203 197 185 176